QPF
0.04 0.02 0.03 0.09 0.08 0.05 0.02 0.00 0.00 0.00 0.00 0.01 0.04 0.03 0.02 0.02 0.04 0.02 0.00 0.00 0.00 0.00 0.00 0.00 0.00 0.00 0.00 0.00 0.00 0.00 0.00 0.00 0.00 0.00 0.00 0.00 0.00 0.00 0.00 0.00 0.00 0.00 0.00 0.01
0.00 0.00 0.02 0.02 0.05 0.03 0.00 0.01 0.00 0.02 0.00 0.00 0.02 0.01 0.02 0.03 0.04 0.02 0.01 0.03 0.02 0.00 0.00 0.00 0.00 0.00 0.00 0.00 0.00 0.00 0.00 0.00 0.00 0.00 0.00 0.00 0.00 0.00 0.00 0.00 0.00 0.00 0.01 0.06
0.00 0.00 0.04 0.05 0.05 0.06 0.00 0.00 0.00 0.01 0.06 0.08 0.14 0.04 0.03 0.04 0.02 0.04 0.03 0.02 0.02 0.02 0.02 0.00 0.00 0.00 0.00 0.00 0.00 0.00 0.00 0.00 0.00 0.00 0.00 0.00 0.00 0.00 0.00 0.02 0.01 0.06 0.10 0.13
0.00 0.00 0.03 0.05 0.06 0.10 0.00 0.00 0.00 0.00 0.02 0.03 0.05 0.04 0.02 0.03 0.01 0.00 0.01 0.14 0.02 0.03 0.03 0.02 0.00 0.00 0.00 0.00 0.00 0.00 0.00 0.00 0.00 0.00 0.00 0.00 0.01 0.01 0.00 0.00 0.01 0.03 0.06 0.09
0.00 0.00 0.03 0.05 0.01 0.03 0.01 0.00 0.00 0.00 0.03 0.03 0.03 0.03 0.03 0.01 0.00 0.00 0.00 0.02 0.03 0.05 0.06 0.04 0.01 0.00 0.03 0.03 0.00 0.00 0.00 0.00 0.00 0.00 0.00 0.00 0.00 0.01 0.06 0.05 0.01 0.01 0.04 0.04
0.00 0.00 0.00 0.00 0.03 0.03 0.05 0.05 0.04 0.02 0.08 0.04 0.02 0.00 0.00 0.00 0.00 0.00 0.00 0.04 0.08 0.08 0.04 0.04 0.02 0.01 0.02 0.07 0.03 0.01 0.00 0.00 0.00 0.00 0.00 0.00 0.04 0.18 0.09 0.03 0.01 0.00 0.01 0.00
0.00 0.01 0.00 0.01 0.04 0.06 0.07 0.07 0.04 0.01 0.02 0.01 0.00 0.00 0.00 0.00 0.00 0.00 0.00 0.01 0.09 0.21 0.06 0.02 0.02 0.02 0.01 0.03 0.04 0.04 0.03 0.00 0.00 0.01 0.07 0.05 0.00 0.01 0.02 0.00 0.00 0.00 0.00 0.00
0.01 0.01 0.01 0.01 0.00 0.02 0.01 0.02 0.01 0.01 0.00 0.00 0.00 0.00 0.00 0.00 0.00 0.00 0.00 0.04 0.84 0.71 0.09 0.01 0.01 0.01 0.01 0.05 0.06 0.02 0.06 0.01 0.00 0.04 0.19 0.15 0.07 0.05 0.02 0.02 0.01 0.00 0.00 0.00
0.00 0.00 0.00 0.00 0.00 0.00 0.00 0.00 0.00 0.00 0.00 0.00 0.00 0.00 0.00 0.00 0.00 0.00 0.00 0.01 0.05 0.07 0.02 0.00 0.00 0.00 0.00 0.00 0.00 0.00 0.06 0.07 0.08 0.31 0.29 0.20 0.15 0.11 0.07 0.01 0.00 0.00 0.00 0.00
0.00 0.00 0.00 0.00 0.00 0.00 0.00 0.00 0.00 0.00 0.00 0.00 0.00 0.00 0.00 0.00 0.00 0.00 0.00 0.00 0.01 0.05 0.04 0.01 0.00 0.00 0.00 0.00 0.00 0.04 0.12 0.17 0.18 0.26 0.27 0.12 0.18 0.10 0.03 0.01 0.00 0.00 0.00 0.00
0.00 0.00 0.00 0.00 0.00 0.00 0.00 0.00 0.00 0.00 0.00 0.00 0.00 0.00 0.00 0.00 0.00 0.00 0.00 0.00 0.00 0.02 0.06 0.03 0.01 0.00 0.01 0.03 0.08 0.17 0.24 0.22 0.14 0.10 0.11 0.09 0.04 0.02 0.00 0.00 0.00 0.00 0.00 0.00
0.00 0.00 0.00 0.00 0.00 0.00 0.00 0.00 0.00 0.00 0.00 0.00 0.00 0.00 0.00 0.00 0.00 0.00 0.00 0.00 0.00 0.01 0.02 0.03 0.03 0.03 0.03 0.12 0.18 0.22 0.18 0.14 0.07 0.04 0.04 0.03 0.00 0.00 0.00 0.00 0.00 0.00 0.00 0.00
0.00 0.00 0.00 0.00 0.00 0.00 0.00 0.00 0.00 0.00 0.00 0.00 0.00 0.00 0.00 0.00 0.00 0.00 0.00 0.00 0.00 0.00 0.00 0.01 0.04 0.05 0.07 0.11 0.12 0.10 0.07 0.05 0.03 0.01 0.01 0.00 0.00 0.00 0.00 0.00 0.00 0.00 0.00 0.00
0.00 0.00 0.00 0.00 0.00 0.00 0.00 0.00 0.00 0.00 0.00 0.00 0.00 0.01 0.00 0.01 0.00 0.00 0.00 0.00 0.00 0.00 0.00 0.01 0.04 0.04 0.04 0.04 0.04 0.03 0.02 0.01 0.00 0.00 0.00 0.00 0.00 0.00 0.00 0.00 0.00 0.00 0.00 0.00
0.00 0.00 0.00 0.00 0.00 0.00 0.00 0.00 0.00 0.00 0.00 0.00 0.00 0.00 0.00 0.00 0.00 0.00 0.00 0.00 0.00 0.01 0.01 0.01 0.01 0.04 0.03 0.02 0.01 0.00 0.00 0.00 0.00 0.00 0.00 0.00 0.00 0.00 0.00 0.00 0.00 0.00 0.00 0.00
0.00 0.00 0.00 0.00 0.00 0.00 0.00 0.00 0.00 0.00 0.00 0.00 0.00 0.00 0.01 0.03 0.03 0.00 0.00 0.00 0.01 0.03 0.04 0.03 0.02 0.01 0.00 0.00 0.00 0.00 0.00 0.00 0.00 0.00 0.00 0.00 0.00 0.00 0.00 0.00 0.00 0.00 0.00 0.00
0.00 0.00 0.00 0.00 0.00 0.00 0.00 0.00 0.00 0.00 0.00 0.00 0.00 0.00 0.06 0.06 0.02 0.02 0.03 0.01 0.01 0.01 0.01 0.01 0.00 0.00 0.00 0.00 0.00 0.00 0.00 0.00 0.00 0.00 0.00 0.00 0.00 0.00 0.00 0.00 0.00 0.00 0.00 0.00
0.00 0.00 0.00 0.00 0.00 0.00 0.00 0.00 0.00 0.00 0.00 0.00 0.00 0.01 0.06 0.04 0.01 0.00 0.00 0.01 0.02 0.02 0.02 0.00 0.00 0.00 0.00 0.00 0.00 0.00 0.00 0.00 0.00 0.00 0.00 0.00 0.00 0.00 0.00 0.00 0.00 0.00 0.00 0.00
0.00 0.00 0.00 0.00 0.00 0.00 0.00 0.00 0.00 0.01 0.00 0.00 0.00 0.00 0.00 0.00 0.00 0.00 0.00 0.02 0.02 0.03 0.01 0.00 0.00 0.00 0.00 0.00 0.00 0.00 0.00 0.00 0.00 0.00 0.00 0.00 0.00 0.00 0.00 0.00 0.00 0.00 0.00 0.00
0.00 0.00 0.00 0.00 0.00 0.00 0.00 0.00 0.00 0.00 0.00 0.02 0.03 0.02 0.00 0.00 0.00 0.00 0.00 0.01 0.05 0.07 0.03 0.00 0.00 0.00 0.00 0.00 0.00 0.00 0.00 0.00 0.00 0.00 0.00 0.00 0.00 0.00 0.00 0.00 0.00 0.00 0.00 0.00
0.00 0.00 0.00 0.00 0.00 0.00 0.00 0.00 0.00 0.00 0.01 0.01 0.02 0.00 0.00 0.00 0.00 0.00 0.00 0.00 0.02 0.07 0.06 0.02 0.00 0.00 0.00 0.00 0.00 0.00 0.00 0.00 0.00 0.00 0.00 0.00 0.00 0.00 0.00 0.00 0.00 0.00 0.00 0.00
0.00 0.00 0.00 0.00 0.00 0.01 0.01 0.00 0.01 0.03 0.05 0.07 0.04 0.01 0.00 0.00 0.00 0.00 0.01 0.04 0.08 0.09 0.05 0.04 0.02 0.00 0.00 0.00 0.00 0.00 0.00 0.00 0.00 0.00 0.00 0.00 0.00 0.00 0.00 0.00 0.00 0.00 0.00 0.00
0.00 0.00 0.00 0.00 0.00 0.00 0.00 0.00 0.01 0.01 0.08 0.17 0.15 0.02 0.00 0.00 0.00 0.00 0.01 0.07 0.25 0.07 0.06 0.02 0.00 0.00 0.00 0.00 0.00 0.00 0.00 0.00 0.00 0.00 0.00 0.00 0.00 0.00 0.00 0.00 0.00 0.00 0.00 0.00
0.00 0.00 0.00 0.01 0.01 0.00 0.00 0.00 0.02 0.01 0.06 0.13 0.10 0.02 0.00 0.00 0.01 0.04 0.03 0.05 0.11 0.06 0.03 0.00 0.00 0.00 0.00 0.00 0.00 0.00 0.00 0.00 0.00 0.00 0.00 0.00 0.00 0.00 0.00 0.00 0.00 0.00 0.00 0.00
0.00 0.00 0.01 0.01 0.01 0.01 0.01 0.00 0.02 0.02 0.04 0.04 0.02 0.00 0.00 0.00 0.01 0.02 0.02 0.01 0.01 0.01 0.00 0.00 0.00 0.00 0.00 0.00 0.00 0.00 0.00 0.00 0.00 0.00 0.00 0.00 0.00 0.00 0.00 0.00 0.00 0.00 0.00 0.00
0.01 0.01 0.01 0.00 0.00 0.02 0.01 0.04 0.06 0.05 0.05 0.02 0.00 0.00 0.00 0.00 0.00 0.00 0.00 0.00 0.00 0.00 0.00 0.00 0.00 0.00 0.00 0.00 0.00 0.00 0.00 0.00 0.00 0.00 0.00 0.00 0.00 0.00 0.00 0.00 0.00 0.00 0.00 0.00
MSLP
1009.64 1010.44 1011.93 1012.06 1012.36 1012.04 1011.30 1010.57 1010.02 1009.20 1008.80 1009.60 1009.88 1010.06 1010.69 1010.84 1010.78 1011.30 1011.15 1010.51 1010.23 1010.03 1009.88 1010.49 1011.27 1011.94 1012.44 1012.97 1013.62 1014.22 1014.85 1015.12 1015.47 1015.80 1016.21 1016.31 1016.37 1016.22 1016.24 1016.40 1015.94 1015.98 1016.21 1016.61
1010.74 1011.32 1011.75 1011.35 1011.01 1011.19 1011.25 1010.73 1010.19 1010.10 1010.00 1009.73 1010.81 1011.35 1011.36 1011.12 1010.62 1010.82 1010.94 1010.63 1010.47 1010.68 1010.41 1010.54 1010.94 1011.54 1012.03 1012.52 1013.15 1013.91 1014.43 1014.95 1015.42 1015.74 1016.03 1016.10 1016.15 1016.28 1016.28 1016.00 1016.18 1016.38 1016.78 1017.07
1010.52 1010.87 1011.03 1010.61 1010.88 1011.04 1010.32 1010.44 1010.01 1010.37 1010.47 1011.14 1012.03 1012.30 1011.97 1011.50 1011.04 1009.74 1009.86 1009.86 1009.85 1010.43 1010.75 1010.52 1010.67 1011.05 1011.60 1012.12 1012.66 1013.08 1013.63 1014.43 1015.07 1015.45 1015.75 1016.21 1016.44 1016.61 1016.71 1016.89 1016.94 1016.87 1016.91 1017.27
1009.96 1009.49 1010.00 1010.40 1010.40 1009.61 1009.94 1008.88 1009.28 1010.68 1011.23 1012.37 1013.22 1013.49 1012.62 1011.35 1010.98 1010.46 1009.86 1009.90 1009.88 1010.56 1011.23 1011.15 1010.26 1010.72 1010.94 1011.31 1011.98 1012.53 1013.15 1013.73 1014.35 1014.76 1015.53 1016.12 1016.47 1017.21 1017.45 1017.26 1017.21 1017.02 1016.77 1016.89
1008.98 1008.31 1009.30 1009.46 1009.28 1010.05 1009.21 1009.82 1010.04 1011.05 1011.84 1012.61 1012.98 1013.35 1011.39 1011.25 1011.16 1010.56 1010.26 1010.73 1010.77 1010.99 1011.04 1011.13 1010.25 1009.40 1010.06 1010.89 1011.59 1011.86 1012.66 1013.46 1014.28 1015.08 1015.66 1016.17 1016.72 1016.72 1016.83 1016.83 1016.83 1016.87 1017.05 1016.84
1008.61 1008.42 1008.19 1007.56 1007.90 1008.58 1009.32 1009.67 1010.93 1011.42 1012.39 1013.30 1011.88 1012.29 1011.50 1011.13 1009.86 1010.53 1011.01 1010.83 1010.71 1010.65 1010.65 1010.36 1010.04 1009.56 1010.01 1010.55 1011.40 1012.42 1012.87 1013.69 1014.21 1014.66 1015.43 1015.97 1016.43 1016.76 1016.74 1016.77 1017.01 1017.45 1017.66 1017.63
1008.04 1007.68 1007.08 1006.94 1008.47 1008.88 1009.22 1009.52 1010.89 1011.80 1012.77 1012.76 1012.50 1012.56 1010.64 1010.62 1010.29 1010.42 1011.36 1011.54 1011.59 1011.29 1010.63 1010.57 1010.24 1010.54 1010.44 1010.60 1010.88 1012.35 1013.57 1014.18 1014.49 1014.74 1015.12 1015.61 1015.96 1016.25 1016.72 1016.92 1016.96 1017.31 1017.91 1018.12
1007.85 1007.52 1006.77 1006.53 1006.96 1007.69 1008.28 1008.90 1010.18 1010.87 1011.80 1012.14 1012.45 1011.84 1009.97 1010.02 1010.54 1010.85 1011.12 1011.22 1010.72 1009.90 1010.48 1010.68 1010.90 1010.06 1010.29 1010.72 1011.75 1012.25 1013.79 1014.77 1014.79 1014.89 1015.36 1015.68 1016.39 1016.77 1017.02 1017.07 1017.36 1017.80 1018.04 1018.54
1006.98 1007.03 1006.22 1005.97 1006.57 1007.12 1008.25 1008.47 1007.52 1009.55 1010.32 1011.54 1011.22 1010.88 1010.35 1010.53 1011.51 1011.66 1012.44 1012.35 1011.65 1011.81 1012.49 1012.06 1011.06 1010.50 1010.23 1010.63 1011.49 1012.13 1013.24 1014.53 1015.45 1015.62 1016.16 1016.17 1016.85 1017.14 1017.35 1017.35 1017.56 1018.21 1018.45 1018.96
1006.03 1006.52 1006.09 1005.80 1006.17 1006.55 1006.92 1007.19 1007.95 1009.09 1010.50 1011.08 1010.87 1010.62 1010.07 1010.51 1011.53 1012.10 1012.81 1012.58 1012.62 1013.29 1013.26 1012.95 1012.48 1012.26 1011.97 1012.23 1012.37 1012.97 1013.79 1014.80 1015.40 1015.66 1016.20 1016.78 1017.16 1017.13 1017.59 1017.92 1018.33 1018.59 1019.18 1019.26
1005.88 1006.65 1006.72 1006.44 1006.56 1006.67 1006.88 1007.62 1008.26 1009.05 1010.02 1010.73 1010.57 1010.04 1009.15 1009.67 1010.40 1011.82 1012.90 1012.57 1013.03 1013.20 1013.70 1013.65 1013.60 1013.43 1013.42 1013.43 1013.87 1014.15 1015.00 1015.58 1015.86 1016.25 1016.89 1017.20 1017.58 1017.81 1018.24 1018.42 1019.04 1019.32 1019.73 1019.74
1005.94 1007.32 1007.92 1007.38 1006.20 1005.99 1006.35 1007.46 1008.45 1010.02 1010.49 1010.72 1010.55 1009.98 1009.64 1009.91 1010.35 1011.75 1012.81 1012.90 1013.28 1013.45 1013.79 1013.89 1013.86 1014.16 1014.55 1014.95 1015.24 1015.73 1016.12 1016.24 1016.34 1017.08 1017.66 1018.01 1017.88 1017.96 1018.51 1018.97 1019.61 1019.75 1020.02 1020.06
1005.83 1007.56 1008.47 1007.83 1007.06 1006.42 1006.80 1007.09 1007.74 1008.93 1009.96 1010.72 1010.95 1010.46 1010.22 1010.92 1011.92 1012.86 1012.98 1013.41 1013.73 1014.18 1014.34 1014.48 1014.62 1015.01 1015.38 1015.86 1016.07 1016.13 1016.41 1016.64 1017.30 1017.69 1018.11 1018.01 1018.29 1018.40 1018.87 1019.32 1019.55 1019.74 1019.94 1020.28
1005.76 1007.97 1008.78 1008.94 1008.51 1008.07 1007.64 1007.08 1007.39 1008.20 1009.28 1009.97 1010.20 1010.44 1010.66 1011.27 1012.06 1012.70 1013.44 1013.89 1014.21 1014.67 1014.94 1014.99 1015.24 1015.31 1015.62 1015.85 1016.04 1016.34 1016.63 1017.07 1017.85 1017.68 1017.92 1018.24 1018.21 1018.48 1018.93 1019.25 1019.66 1019.89 1020.10 1020.28
1007.13 1008.66 1008.85 1008.66 1008.30 1007.91 1007.66 1007.41 1007.43 1008.07 1008.25 1008.95 1008.93 1009.81 1009.64 1010.46 1011.68 1012.68 1013.27 1013.73 1014.23 1014.52 1014.71 1015.10 1015.25 1015.67 1015.98 1016.08 1016.14 1016.71 1017.07 1017.51 1017.94 1017.62 1017.78 1018.07 1018.30 1018.78 1019.10 1019.47 1019.84 1019.95 1020.06 1020.22
1008.03 1008.80 1009.11 1009.05 1008.19 1007.65 1007.43 1007.22 1007.07 1007.30 1007.76 1008.26 1008.99 1010.02 1010.38 1010.97 1011.78 1012.37 1012.82 1013.22 1013.52 1013.77 1013.82 1014.24 1015.00 1015.51 1015.89 1016.22 1016.13 1016.59 1016.99 1017.01 1017.15 1017.35 1017.65 1018.03 1018.19 1018.80 1019.29 1019.49 1019.72 1019.86 1020.04 1020.15
1008.39 1008.98 1009.73 1009.52 1008.54 1007.90 1007.69 1007.13 1007.03 1007.33 1007.66 1008.15 1009.40 1010.06 1010.70 1011.51 1011.92 1012.17 1012.50 1012.45 1012.21 1012.18 1012.31 1012.58 1013.06 1014.23 1015.46 1015.92 1016.07 1016.22 1016.61 1016.58 1017.12 1017.55 1017.76 1018.21 1018.48 1018.87 1019.14 1019.28 1019.61 1019.93 1019.99 1020.02
1008.40 1009.36 1009.91 1010.15 1009.37 1008.77 1007.50 1006.82 1006.64 1007.78 1008.63 1009.03 1009.90 1010.51 1010.92 1011.18 1011.84 1012.07 1011.90 1011.92 1011.56 1011.17 1011.37 1012.00 1012.24 1013.48 1014.53 1015.65 1016.35 1016.22 1016.47 1017.08 1017.33 1017.62 1018.05 1018.13 1018.34 1018.93 1019.04 1019.30 1019.69 1019.82 1019.85 1019.88
1008.17 1009.27 1010.24 1010.57 1010.32 1009.27 1007.78 1007.33 1007.49 1007.76 1009.68 1010.03 1010.47 1011.64 1012.37 1012.36 1012.35 1012.10 1011.58 1011.79 1011.84 1011.56 1011.59 1012.22 1012.25 1013.37 1014.27 1015.41 1016.22 1016.31 1016.65 1017.16 1017.60 1017.95 1018.01 1018.07 1018.36 1018.81 1019.02 1019.40 1019.62 1019.65 1019.58 1019.51
1008.67 1009.27 1010.30 1010.93 1010.74 1009.80 1008.63 1007.70 1007.16 1007.65 1009.86 1010.51 1010.40 1010.95 1011.34 1012.65 1012.77 1010.97 1010.78 1011.31 1011.62 1011.47 1011.87 1011.99 1012.37 1013.41 1014.34 1015.33 1015.72 1016.16 1016.91 1017.24 1017.60 1017.77 1017.78 1017.88 1018.07 1018.48 1018.86 1019.07 1019.25 1019.12 1019.06 1019.05
1009.90 1010.45 1010.85 1010.92 1010.70 1009.67 1008.32 1007.60 1007.03 1007.94 1009.65 1009.16 1009.51 1010.31 1010.88 1011.66 1010.28 1009.87 1010.22 1011.40 1011.72 1011.47 1012.08 1012.27 1012.78 1013.59 1014.42 1015.19 1015.70 1016.33 1016.65 1017.06 1017.19 1017.33 1017.51 1017.64 1017.91 1018.22 1018.39 1018.56 1018.70 1018.65 1018.69 1018.74
1010.43 1010.86 1011.34 1011.70 1011.16 1009.87 1008.48 1007.85 1007.96 1008.85 1008.90 1010.02 1009.80 1009.77 1009.84 1010.02 1009.87 1010.23 1010.45 1011.25 1011.47 1011.78 1012.18 1012.19 1012.80 1013.82 1014.42 1015.14 1015.72 1016.19 1016.52 1016.51 1016.86 1017.07 1017.29 1017.49 1017.74 1017.83 1017.93 1018.15 1018.16 1018.22 1018.44 1018.58
1010.30 1010.09 1010.57 1011.50 1010.55 1009.52 1008.78 1008.46 1007.92 1008.14 1008.53 1009.44 1010.59 1009.79 1009.34 1009.16 1009.69 1010.21 1010.81 1011.22 1011.71 1012.09 1012.34 1012.42 1013.05 1013.97 1014.64 1015.08 1015.29 1015.93 1016.09 1016.41 1016.73 1017.01 1017.30 1017.45 1017.50 1017.58 1017.58 1017.92 1018.11 1018.25 1018.20 1018.22
1009.87 1009.80 1010.56 1011.06 1010.39 1009.69 1009.29 1008.65 1007.91 1009.00 1008.75 1007.97 1009.15 1008.64 1008.17 1008.56 1009.61 1010.13 1010.90 1011.31 1011.29 1011.90 1012.37 1012.87 1013.08 1013.92 1014.52 1014.82 1015.01 1015.32 1015.63 1015.93 1016.45 1016.90 1017.14 1017.31 1017.51 1017.48 1017.38 1017.46 1017.55 1017.71 1017.61 1017.58
1009.92 1010.03 1010.77 1010.86 1010.19 1009.79 1009.46 1008.77 1008.70 1008.33 1007.72 1007.60 1007.52 1007.47 1007.93 1008.67 1009.71 1010.08 1010.68 1011.10 1011.06 1011.27 1012.07 1012.55 1012.89 1013.52 1013.98 1014.19 1014.61 1014.81 1015.08 1015.66 1016.26 1016.58 1016.79 1017.04 1017.17 1017.20 1017.20 1017.10 1016.88 1016.81 1016.34 1016.30
1009.93 1010.17 1010.59 1010.67 1010.07 1010.06 1009.83 1009.50 1009.34 1008.99 1009.07 1008.86 1007.21 1007.66 1007.91 1008.25 1009.17 1009.87 1010.29 1010.51 1011.08 1011.57 1012.02 1012.40 1012.72 1013.06 1013.32 1013.71 1013.97 1014.31 1014.59 1015.13 1015.67 1016.18 1016.47 1016.64 1016.73 1016.72 1016.69 1016.58 1016.20 1015.53 1015.37 1015.18
Thickness
5811 5790 5763 5776 5779 5784 5790 5794 5790 5807 5821 5803 5799 5797 5800 5804 5807 5797 5800 5811 5814 5815 5826 5828 5822 5817 5814 5812 5807 5803 5798 5798 5797 5795 5792 5791 5790 5792 5793 5790 5791 5790 5787 5782
5795 5775 5789 5806 5808 5797 5790 5782 5784 5793 5807 5810 5790 5786 5792 5799 5810 5807 5808 5811 5810 5811 5815 5820 5823 5818 5816 5814 5810 5804 5801 5797 5795 5793 5791 5791 5789 5790 5789 5792 5790 5787 5783 5780
5790 5796 5804 5805 5797 5788 5796 5786 5786 5787 5796 5796 5777 5776 5781 5799 5807 5822 5826 5826 5822 5811 5810 5816 5820 5820 5818 5814 5812 5810 5807 5801 5796 5793 5790 5787 5786 5783 5780 5779 5780 5780 5778 5775
5802 5819 5806 5794 5792 5806 5774 5817 5811 5794 5778 5757 5769 5744 5770 5789 5796 5803 5814 5814 5819 5808 5804 5808 5822 5821 5822 5821 5818 5816 5810 5807 5803 5800 5791 5785 5779 5770 5771 5774 5776 5777 5778 5776
5812 5819 5801 5795 5798 5798 5795 5811 5803 5794 5777 5766 5767 5749 5778 5788 5786 5796 5804 5802 5802 5804 5808 5809 5819 5831 5827 5824 5819 5819 5814 5807 5802 5795 5789 5781 5775 5775 5775 5776 5775 5775 5771 5773
5811 5832 5825 5826 5825 5816 5813 5799 5785 5781 5763 5740 5774 5767 5770 5774 5796 5794 5795 5801 5806 5805 5807 5813 5823 5831 5826 5823 5820 5811 5808 5801 5798 5795 5787 5780 5775 5770 5770 5771 5769 5764 5762 5763
5811 5816 5835 5835 5795 5803 5794 5779 5746 5748 5739 5739 5764 5757 5780 5789 5798 5796 5787 5791 5794 5795 5794 5807 5818 5811 5820 5819 5822 5810 5799 5791 5791 5790 5787 5781 5776 5772 5767 5766 5765 5761 5756 5754
5786 5778 5816 5830 5823 5811 5802 5788 5755 5739 5738 5746 5761 5747 5782 5801 5796 5795 5790 5789 5801 5809 5803 5808 5803 5815 5818 5818 5810 5807 5794 5785 5785 5782 5780 5775 5768 5762 5760 5760 5756 5751 5749 5743
5775 5783 5826 5830 5820 5818 5790 5775 5806 5774 5771 5741 5747 5771 5788 5790 5779 5781 5778 5776 5788 5793 5788 5790 5800 5808 5809 5808 5806 5804 5794 5784 5777 5773 5769 5765 5757 5754 5752 5752 5750 5742 5738 5732
5812 5786 5816 5827 5829 5823 5806 5816 5778 5767 5749 5748 5752 5765 5763 5771 5768 5771 5769 5772 5776 5774 5780 5784 5785 5786 5791 5793 5795 5791 5783 5776 5770 5768 5763 5754 5751 5748 5743 5740 5735 5731 5723 5720
5816 5794 5797 5813 5800 5796 5792 5778 5781 5771 5752 5736 5738 5756 5796 5785 5781 5770 5767 5776 5771 5768 5763 5767 5770 5776 5780 5783 5778 5774 5766 5761 5761 5757 5750 5746 5742 5737 5730 5727 5720 5716 5710 5708
5818 5777 5765 5790 5815 5821 5808 5789 5769 5736 5744 5740 5735 5749 5782 5785 5784 5775 5765 5768 5766 5766 5762 5763 5766 5765 5762 5758 5756 5754 5748 5748 5748 5741 5734 5730 5730 5728 5721 5714 5706 5704 5699 5695
5815 5767 5737 5752 5781 5799 5792 5794 5783 5763 5743 5740 5727 5740 5779 5775 5768 5761 5758 5756 5755 5754 5753 5754 5753 5752 5749 5744 5742 5744 5739 5737 5730 5726 5720 5719 5715 5712 5707 5702 5699 5695 5691 5684
5808 5765 5749 5723 5744 5760 5761 5777 5785 5766 5737 5736 5740 5748 5759 5764 5757 5753 5748 5745 5747 5744 5743 5743 5740 5739 5738 5738 5738 5735 5730 5724 5716 5716 5713 5708 5707 5703 5698 5694 5688 5683 5679 5673
5785 5757 5764 5761 5762 5767 5763 5761 5766 5759 5759 5750 5764 5756 5764 5766 5755 5748 5745 5743 5741 5738 5738 5736 5735 5732 5728 5726 5725 5719 5716 5711 5706 5708 5706 5701 5698 5692 5688 5682 5677 5674 5670 5665
5770 5746 5755 5745 5758 5759 5752 5759 5762 5762 5765 5762 5751 5744 5752 5755 5747 5742 5743 5742 5740 5738 5739 5735 5726 5720 5717 5715 5715 5712 5709 5708 5706 5703 5699 5694 5692 5684 5677 5674 5669 5665 5660 5656
5762 5747 5730 5714 5744 5743 5726 5746 5747 5747 5750 5751 5726 5737 5743 5738 5741 5737 5735 5738 5742 5742 5741 5737 5734 5722 5711 5709 5709 5705 5704 5705 5699 5693 5691 5684 5680 5675 5671 5667 5661 5655 5652 5650
5757 5737 5717 5708 5722 5699 5740 5756 5757 5737 5733 5732 5730 5734 5737 5736 5733 5733 5737 5737 5739 5741 5738 5730 5730 5717 5710 5700 5696 5701 5699 5692 5689 5685 5680 5679 5675 5667 5663 5658 5652 5648 5646 5644
5759 5734 5720 5706 5695 5715 5737 5745 5741 5733 5713 5727 5722 5714 5714 5720 5723 5726 5730 5727 5723 5727 5728 5715 5723 5713 5706 5696 5693 5694 5692 5686 5681 5675 5674 5672 5666 5660 5656 5650 5645 5642 5641 5641
5749 5737 5717 5701 5697 5689 5717 5742 5750 5742 5693 5718 5724 5720 5718 5708 5695 5712 5727 5720 5714 5717 5717 5718 5718 5709 5701 5693 5692 5689 5681 5678 5674 5670 5670 5667 5663 5656 5649 5644 5640 5640 5640 5638
5717 5711 5706 5695 5693 5702 5733 5740 5753 5704 5699 5729 5729 5723 5719 5707 5721 5733 5727 5714 5713 5717 5712 5713 5709 5702 5695 5689 5686 5680 5678 5674 5673 5671 5667 5663 5656 5650 5645 5642 5640 5640 5639 5638
5706 5696 5687 5680 5679 5684 5733 5737 5718 5717 5723 5712 5716 5722 5723 5722 5728 5726 5724 5718 5716 5712 5708 5710 5704 5696 5691 5684 5681 5679 5676 5676 5671 5667 5662 5657 5651 5649 5647 5643 5642 5641 5637 5634
5701 5706 5694 5687 5686 5713 5727 5726 5732 5727 5721 5712 5692 5716 5724 5727 5724 5721 5715 5714 5709 5706 5705 5703 5698 5690 5685 5682 5682 5677 5674 5670 5665 5660 5654 5650 5648 5647 5646 5642 5639 5635 5635 5632
5716 5717 5698 5694 5706 5709 5713 5724 5728 5716 5711 5723 5711 5724 5732 5728 5719 5716 5712 5709 5710 5704 5699 5698 5695 5686 5681 5681 5680 5675 5671 5667 5660 5652 5649 5646 5643 5643 5642 5640 5638 5636 5634 5632
5703 5702 5686 5685 5699 5705 5709 5717 5715 5717 5724 5726 5731 5730 5725 5721 5712 5711 5705 5703 5704 5706 5700 5696 5690 5685 5682 5680 5675 5673 5669 5661 5653 5649 5646 5643 5641 5640 5639 5639 5640 5639 5642 5640
5695 5688 5675 5673 5693 5694 5695 5701 5705 5707 5706 5709 5724 5718 5720 5719 5709 5705 5701 5701 5699 5696 5694 5687 5686 5683 5681 5677 5674 5671 5666 5659 5653 5647 5643 5641 5639 5639 5637 5636 5638 5644 5645 5646